This is the latest recevied weather packets stored in our database for station/object KE5OYL. If no packets are shown the sender has not sent any weather packets the latest 10 day(s).
| Time | Temp. | Humidity | Pressure | Rain* | Wind** | Luminosity | Snow |
|---|---|---|---|---|---|---|---|
| 1777599275 | 16.67° C | 77% | 1015.1 hPa | 0 mm | - | 0 W/m² | - |
| 1777598971 | 16.67° C | 77% | 1015.3 hPa | 0 mm | - | 0 W/m² | - |
| 1777598668 | 16.67° C | 77% | 1015.2 hPa | 0 mm | - | 0 W/m² | - |
| 1777598364 | 16.67° C | 77% | 1015 hPa | 0 mm | - | 0 W/m² | - |
| 1777598062 | 16.67° C | 77% | 1015.1 hPa | 0 mm | - | 0 W/m² | - |
| 1777597762 | 16.67° C | 77% | 1015.2 hPa | 0 mm | - | 0 W/m² | - |
| 1777597456 | 16.67° C | 77% | 1015.2 hPa | 0 mm | - | 1 W/m² | - |
| 1777597152 | 16.67° C | 77% | 1015 hPa | 0 mm | - | 1 W/m² | - |
| 1777596848 | 16.67° C | 77% | 1015 hPa | 0 mm | - | 1 W/m² | - |
| 1777596544 | 16.67° C | 77% | 1014.7 hPa | 0 mm | - | 3 W/m² | - |
| 1777596242 | 16.67° C | 77% | 1014.5 hPa | 0 mm | - | 9 W/m² | - |
| 1777595939 | 16.67° C | 76% | 1014.9 hPa | 0 mm | - | 7 W/m² | - |
| 1777595633 | 16.67° C | 77% | 1014.9 hPa | 0 mm | - | 7 W/m² | - |
| 1777595329 | 16.67° C | 77% | 1014.6 hPa | 0 mm | - | 8 W/m² | - |
| 1777595025 | 16.67° C | 77% | 1014.7 hPa | 0 mm | - | 18 W/m² | - |
| 1777594723 | 16.67° C | 77% | 1014.5 hPa | 0 mm | - | 21 W/m² | - |
| 1777594419 | 16.67° C | 77% | 1014.3 hPa | 0 mm | - | 17 W/m² | - |
| 1777594114 | 16.67° C | 77% | 1014.5 hPa | 0 mm | - | 23 W/m² | - |
| 1777593811 | 16.67° C | 77% | 1014.4 hPa | 0 mm | - | 24 W/m² | - |
| 1777593507 | 16.67° C | 77% | 1014.1 hPa | 0 mm | - | 28 W/m² | - |
| 1777593202 | 16.67° C | 77% | 1014.1 hPa | 0 mm | - | 26 W/m² | - |
| 1777592901 | 16.67° C | 77% | 1013.8 hPa | 0 mm | - | 54 W/m² | - |
| 1777592597 | 16.67° C | 77% | 1013.7 hPa | 0 mm | - | 55 W/m² | - |
| 1777592293 | 16.67° C | 77% | 1013.6 hPa | 0 mm | - | 56 W/m² | - |
| 1777591989 | 16.67° C | 77% | 1013.7 hPa | 0 mm | - | 49 W/m² | - |
* Rain latest hour (hover to see other rain measurements)
** Current wind speed in m/s (hover to see current wind gust speed)